WD6AWP Weather Reports


time (UTC)temp
F
wind
direction
speed
knots
gust
knots
rain 1hr
in
rain 24hr
in
rain mn
in
humidity
%
barometer
mb
20260906064532 71 309 0.0 0.0 0.00 0.00 0.00 79 1012.0
20260906063032 72 309 0.0 0.0 0.00 0.00 0.00 79 1011.9
20260906061531 72 309 0.0 0.0 0.00 0.00 0.00 78 1011.9
20260906060030 73 310 0.0 0.0 0.00 0.00 0.00 76 1012.1
20260906054530 74 310 0.0 0.0 0.00 0.00 0.00 75 1012.3
20260906053036 74 309 0.0 0.0 0.00 0.00 0.00 73 1012.4
20260906051529 75 309 0.0 1.7 0.00 0.00 0.00 72 1012.3
20260906050032 75 323 0.0 0.0 0.00 0.00 0.00 74 1012.3
20260906044530 75 303 0.9 4.3 0.00 0.00 0.00 76 1012.3
20260906043039 75 306 0.0 4.3 0.00 0.00 0.00 75 1012.2
20260906041527 75 304 0.0 0.0 0.00 0.00 0.00 75 1012.0
20260906040027 75 304 0.0 0.0 0.00 0.00 0.00 76 1011.9
20260906034528 74 304 0.0 0.0 0.00 0.00 0.00 77 1011.9
20260906033026 74 304 0.0 0.0 0.00 0.00 0.00 79 1011.8
20260906031525 75 304 0.0 0.0 0.00 0.00 0.00 83 1011.7
20260906030025 75 304 0.0 0.0 0.00 0.00 0.00 82 1011.5
20260906024525 75 304 0.0 4.3 0.00 0.00 0.00 82 1011.4
20260906023022 75 278 2.6 8.7 0.00 0.00 0.00 82 1011.5
20260906021522 75 277 6.1 9.6 0.00 0.00 0.00 81 1011.6
20260906020020 76 288 5.2 11.3 0.00 0.00 0.00 80 1011.5
20260906014528 76 268 6.1 10.4 0.00 0.00 0.00 80 1011.7
20260906013020 76 252 5.2 10.4 0.00 0.00 0.00 82 1011.6
20260906011520 77 264 6.1 11.3 0.00 0.00 0.00 81 1011.6
20260906010017 77 236 5.2 11.3 0.00 0.00 0.00 80 1011.6
20260906004619 78 235 3.5 12.2 0.00 0.00 0.00 79 1011.6
20260906003051 78 246 4.3 9.6 0.00 0.00 0.00 77 1011.6
20260906001514 79 250 2.6 9.6 0.00 0.00 0.00 75 1011.6
20260906000014 81 256 4.3 8.7 0.00 0.00 0.00 71 1011.6
20260905234512 80 304 6.1 10.4 0.00 0.00 0.00 70 1011.5
20260905233013 80 286 6.1 10.4 0.00 0.00 0.00 68 1011.7
20260905231514 81 242 6.1 10.4 0.00 0.00 0.00 66 1011.6
20260905230008 81 249 5.2 9.6 0.00 0.00 0.00 67 1011.7
20260905224507 81 280 6.1 10.4 0.00 0.00 0.00 66 1011.9
20260905223006 82 265 5.2 10.4 0.00 0.00 0.00 68 1012.1
20260905221503 81 304 7.0 11.3 0.00 0.00 0.00 69 1012.1
20260905220002 81 192 6.1 11.3 0.00 0.00 0.00 65 1012.2
20260905214600 80 261 5.2 12.2 0.00 0.00 0.00 67 1012.4
20260905213102 80 248 6.1 10.4 0.00 0.00 0.00 66 1012.6
20260905211557 81 257 7.0 11.3 0.00 0.00 0.00 65 1012.6
20260905210056 80 269 6.1 11.3 0.00 0.00 0.00 70 1012.7
20260905204555 80 269 4.3 11.3 0.00 0.00 0.00 71 1012.7
20260905203059 80 281 7.0 11.3 0.00 0.00 0.00 68 1012.9
20260905201553 81 256 5.2 11.3 0.00 0.00 0.00 69 1013.0
20260905200056 80 261 5.2 10.4 0.00 0.00 0.00 70 1013.2
20260905194552 81 274 6.1 10.4 0.00 0.00 0.00 70 1013.4
20260905193051 81 257 4.3 9.6 0.00 0.00 0.00 70 1013.6
20260905191550 81 227 3.5 8.7 0.00 0.00 0.00 70 1013.8
20260905190055 81 277 2.6 8.7 0.00 0.00 0.00 69 1014.0
20260905184556 81 227 2.6 8.7 0.00 0.00 0.00 69 1014.1
20260905183050 80 217 2.6 9.6 0.00 0.00 0.00 71 1014.2
20260905181542 79 302 2.6 7.0 0.00 0.00 0.00 71 1014.0
20260905180040 79 219 2.6 6.1 0.00 0.00 0.00 72 1014.1
20260905174539 78 279 1.7 7.8 0.00 0.00 0.00 74 1014.1
20260905173038 78 259 2.6 7.0 0.00 0.00 0.00 74 1014.1
20260905171538 78 278 0.9 6.1 0.00 0.00 0.00 75 1014.1
20260905170038 77 275 1.7 5.2 0.00 0.00 0.00 75 1014.2
20260905164537 77 285 0.9 5.2 0.00 0.00 0.00 77 1014.2
20260905163033 76 271 0.9 6.1 0.00 0.00 0.00 78 1014.1
20260905161531 77 280 0.9 3.5 0.00 0.00 0.00 77 1014.0
20260905160026 75 302 0.0 0.0 0.00 0.00 0.00 78 1014.0
20260905154522 74 300 0.0 0.0 0.00 0.00 0.00 81 1013.9
20260905153022 72 34 0.9 2.6 0.00 0.00 0.00 83 1013.6
20260905151512 70 29 0.0 0.0 0.00 0.00 0.00 88 1013.7
20260905150008 68 29 0.0 0.0 0.00 0.00 0.00 94 1013.6
20260905144506 65 30 0.0 0.0 0.00 0.00 0.00 96 1013.4
20260905143013 63 289 0.0 0.0 0.00 0.00 0.00 96 1013.3
20260905141503 61 289 0.0 0.0 0.00 0.00 0.00 95 1013.1
20260905140004 61 289 0.0 0.0 0.00 0.00 0.00 94 1013.0
20260905134505 61 289 0.0 0.0 0.00 0.00 0.00 94 1013.0
20260905133001 62 289 0.0 0.0 0.00 0.00 0.00 94 1012.8
20260905131610 62 289 0.0 0.0 0.00 0.00 0.00 94 1012.7
20260905130100 62 289 0.0 0.0 0.00 0.00 0.00 94 1012.6
20260905124558 62 289 0.0 0.0 0.00 0.00 0.00 94 1012.6
20260905123058 63 289 0.0 0.0 0.00 0.00 0.00 94 1012.5
20260905121554 63 289 0.0 0.0 0.00 0.00 0.00 94 1012.6
20260905120105 63 289 0.0 0.0 0.00 0.00 0.00 94 1012.6
20260905114554 63 289 0.0 0.0 0.00 0.00 0.00 94 1012.7
20260905113052 63 289 0.0 0.0 0.00 0.00 0.00 93 1012.6
20260905111606 64 289 0.0 0.0 0.00 0.00 0.00 94 1012.6
20260905110054 64 289 0.0 0.0 0.00 0.00 0.00 94 1012.8
20260905104547 64 289 0.0 0.0 0.00 0.00 0.00 94 1012.8
20260905103047 64 289 0.0 0.0 0.00 0.00 0.00 93 1012.8
20260905101548 64 289 0.0 0.0 0.00 0.00 0.00 93 1012.8
20260905100046 65 289 0.0 0.0 0.00 0.00 0.00 93 1012.9
20260905094544 65 289 0.0 0.0 0.00 0.00 0.00 93 1012.9
20260905093043 65 289 0.0 0.0 0.00 0.00 0.00 93 1012.8
20260905091541 65 289 0.0 0.0 0.00 0.00 0.00 92 1012.9
20260905090040 65 289 0.0 0.0 0.00 0.00 0.00 93 1013.0
20260905084539 65 289 0.0 0.0 0.00 0.00 0.00 92 1013.0
20260905083037 65 289 0.0 0.0 0.00 0.00 0.00 91 1013.0
20260905081535 66 289 0.0 0.0 0.00 0.00 0.00 92 1013.1
20260905080033 66 289 0.0 0.0 0.00 0.00 0.00 92 1013.2
20260905074532 66 289 0.0 0.0 0.00 0.00 0.00 91 1013.2
20260905073041 67 289 0.0 0.0 0.00 0.00 0.00 91 1013.2
20260905071539 67 289 0.0 0.0 0.00 0.00 0.00 91 1013.2
20260905070027 67 289 0.0 0.0 0.00 0.00 0.00 90 1013.2